BKP269 VTSM-VTBS

Flight info

Callsign BKP269
Flight time 0h 49m
Altitude 36000
Route OLBAG1A OLBAG Y17 DONSI M769 LEBIM LEBIM1C
Aircraft A320/M-SDE3FGHIRWY/LB1

Departure

Time 2026-04-19 04:34
Airport Samui International Airport (VTSM)

Arrival

Time 2026-04-19 05:24
Airport Suvarnabhumi Airport (VTBS)
Time Latitude Longitude Altitude Speed Heading
2026-04-19 04:06 9.55082 100.06344 49 ft 0 kts 84°
2026-04-19 04:26 9.55081 100.06335 51 ft 3 kts 89°
2026-04-19 04:27 9.55083 100.06315 53 ft 3 kts 117°
2026-04-19 04:27 9.55093 100.06303 49 ft 2 kts 167°
2026-04-19 04:27 9.55099 100.06302 49 ft 0 kts 174°
2026-04-19 04:30 9.55098 100.06302 49 ft 1 kts 174°
2026-04-19 04:31 9.55084 100.06304 50 ft 4 kts 174°
2026-04-19 04:31 9.55050 100.06307 53 ft 7 kts 175°
2026-04-19 04:31 9.55011 100.06263 53 ft 11 kts 266°
2026-04-19 04:31 9.55083 100.06217 53 ft 15 kts 352°
2026-04-19 04:32 9.55207 100.06204 53 ft 21 kts 354°
2026-04-19 04:32 9.55371 100.06188 53 ft 26 kts 354°
2026-04-19 04:32 9.55560 100.06171 50 ft 28 kts 355°
2026-04-19 04:32 9.55698 100.06177 52 ft 8 kts 313°
2026-04-19 04:33 9.55687 100.06158 53 ft 4 kts 169°
2026-04-19 04:33 9.55676 100.06159 53 ft 0 kts 173°
2026-04-19 04:33 9.55664 100.06160 50 ft 14 kts 173°
2026-04-19 04:33 9.55301 100.06197 53 ft 87 kts 174°
2026-04-19 04:34 9.54504 100.06272 55 ft 139 kts 173°
2026-04-19 04:34 9.53631 100.06352 483 ft 139 kts 172°
2026-04-19 04:34 9.52700 100.06609 978 ft 139 kts 154°
2026-04-19 04:34 9.51801 100.07017 1349 ft 146 kts 158°
2026-04-19 04:35 9.50796 100.07430 1479 ft 169 kts 158°
2026-04-19 04:35 9.49586 100.07921 1554 ft 201 kts 158°
2026-04-19 04:35 9.48222 100.08475 1985 ft 219 kts 156°
2026-04-19 04:35 9.46971 100.09439 2357 ft 244 kts 128°
2026-04-19 04:36 9.46240 100.11041 3024 ft 253 kts 99°
2026-04-19 04:36 9.46264 100.12751 4357 ft 235 kts 78°
2026-04-19 04:36 9.46896 100.14250 5363 ft 232 kts 55°
2026-04-19 04:36 9.48081 100.15360 6195 ft 234 kts 32°
2026-04-19 04:37 9.49493 100.16189 6957 ft 235 kts 31°
2026-04-19 04:37 9.50919 100.17025 7685 ft 238 kts 32°
2026-04-19 04:37 9.52355 100.17870 8411 ft 241 kts 31°
2026-04-19 04:37 9.53813 100.18725 9123 ft 244 kts 29°
2026-04-19 04:38 9.55425 100.19305 9802 ft 251 kts 12°
2026-04-19 04:38 9.57251 100.19390 10077 ft 276 kts 360°
2026-04-19 04:38 9.59254 100.19339 10308 ft 299 kts 360°
2026-04-19 04:38 9.61414 100.19290 10497 ft 322 kts 360°
2026-04-19 04:39 9.63738 100.19242 10694 ft 343 kts 360°
2026-04-19 04:39 9.66157 100.19194 11177 ft 351 kts
2026-04-19 04:39 9.68613 100.19145 11779 ft 355 kts 359°
2026-04-19 04:39 9.71089 100.19097 12428 ft 358 kts
2026-04-19 04:40 9.73540 100.19348 13018 ft 360 kts 14°
2026-04-19 04:40 9.75892 100.20241 13630 ft 363 kts 27°
2026-04-19 04:40 9.78156 100.21393 14178 ft 366 kts 27°
2026-04-19 04:40 9.80442 100.22554 14713 ft 369 kts 27°
2026-04-19 04:41 9.82746 100.23722 15254 ft 371 kts 27°
2026-04-19 04:41 9.85069 100.24897 15793 ft 374 kts 26°
2026-04-19 04:41 9.87419 100.26082 16337 ft 377 kts 26°
2026-04-19 04:41 9.89772 100.27270 16886 ft 380 kts 26°
2026-04-19 04:42 9.92151 100.28471 17415 ft 383 kts 26°
2026-04-19 04:42 9.94547 100.29682 17967 ft 386 kts 26°
2026-04-19 04:42 9.96956 100.30900 18477 ft 388 kts 25°
2026-04-19 04:42 9.99377 100.32153 18934 ft 392 kts 27°
2026-04-19 04:43 10.01769 100.33491 19406 ft 395 kts 28°
2026-04-19 04:43 10.04159 100.34899 19870 ft 398 kts 30°
2026-04-19 04:43 10.06552 100.36338 20352 ft 401 kts 30°
2026-04-19 04:43 10.08935 100.37774 20828 ft 404 kts 30°
2026-04-19 04:44 10.11444 100.39075 21293 ft 407 kts 20°
2026-04-19 04:44 10.14161 100.39888 21756 ft 408 kts
2026-04-19 04:44 10.16990 100.40165 22212 ft 410 kts
2026-04-19 04:44 10.19855 100.40222 22663 ft 413 kts
2026-04-19 04:45 10.22738 100.40282 23105 ft 415 kts
2026-04-19 04:45 10.25639 100.40345 23520 ft 418 kts
2026-04-19 04:45 10.28553 100.40410 23863 ft 420 kts
2026-04-19 04:45 10.31485 100.40481 24212 ft 422 kts
2026-04-19 04:46 10.34424 100.40552 24570 ft 424 kts
2026-04-19 04:46 10.37382 100.40625 24922 ft 425 kts
2026-04-19 04:46 10.40353 100.40698 25267 ft 427 kts
2026-04-19 04:46 10.43297 100.40770 25612 ft 428 kts
2026-04-19 04:47 10.46289 100.40842 25955 ft 430 kts
2026-04-19 04:47 10.49286 100.40915 26288 ft 432 kts
2026-04-19 04:47 10.52303 100.40990 26616 ft 433 kts
2026-04-19 04:47 10.55334 100.41067 26941 ft 435 kts
2026-04-19 04:48 10.58326 100.41139 27249 ft 436 kts
2026-04-19 04:48 10.61393 100.41210 27560 ft 438 kts
2026-04-19 04:48 10.64449 100.41280 27868 ft 439 kts
2026-04-19 04:48 10.67504 100.41353 28179 ft 441 kts
2026-04-19 04:49 10.70541 100.41427 28487 ft 442 kts
2026-04-19 04:49 10.73625 100.41502 28814 ft 444 kts
2026-04-19 04:49 10.76723 100.41577 29121 ft 446 kts
2026-04-19 04:49 10.79832 100.41654 29438 ft 448 kts
2026-04-19 04:50 10.82950 100.41733 29741 ft 449 kts
2026-04-19 04:50 10.86081 100.41811 30029 ft 451 kts
2026-04-19 04:50 10.89226 100.41889 30286 ft 452 kts
2026-04-19 04:50 10.92366 100.41966 30656 ft 450 kts
2026-04-19 04:51 10.95495 100.42041 31023 ft 449 kts
2026-04-19 04:51 10.98610 100.42113 31394 ft 448 kts
2026-04-19 04:51 11.01729 100.42183 31778 ft 447 kts
2026-04-19 04:51 11.04834 100.42255 32156 ft 446 kts
2026-04-19 04:52 11.07934 100.42330 32546 ft 445 kts
2026-04-19 04:52 11.11021 100.42405 32938 ft 444 kts
2026-04-19 04:52 11.14109 100.42480 33354 ft 443 kts
2026-04-19 04:52 11.17178 100.42555 33772 ft 442 kts
2026-04-19 04:53 11.20249 100.42631 34141 ft 440 kts
2026-04-19 04:53 11.23307 100.42705 34499 ft 439 kts
2026-04-19 04:53 11.26360 100.42779 34831 ft 439 kts
2026-04-19 04:53 11.29416 100.42853 35157 ft 438 kts
2026-04-19 04:54 11.32462 100.42927 35477 ft 438 kts
2026-04-19 04:54 11.35465 100.43000 35777 ft 437 kts
2026-04-19 04:54 11.38516 100.43074 35888 ft 439 kts
2026-04-19 04:54 11.41573 100.43149 35911 ft 440 kts
2026-04-19 04:55 11.47710 100.43308 35907 ft 441 kts
2026-04-19 04:55 11.53848 100.43458 35905 ft 441 kts
2026-04-19 04:56 11.59995 100.43606 35907 ft 441 kts
2026-04-19 04:56 11.66137 100.43757 35905 ft 442 kts
2026-04-19 04:57 11.72293 100.43902 35917 ft 442 kts
2026-04-19 04:57 11.78413 100.44057 35922 ft 442 kts
2026-04-19 04:58 11.84570 100.44211 35916 ft 442 kts
2026-04-19 04:58 11.90726 100.44365 35919 ft 442 kts
2026-04-19 04:59 11.96882 100.44525 35922 ft 442 kts
2026-04-19 04:59 12.03029 100.44685 35916 ft 441 kts
2026-04-19 05:00 12.09175 100.44838 35922 ft 441 kts
2026-04-19 05:00 12.15273 100.44981 35912 ft 441 kts
2026-04-19 05:01 12.21403 100.45136 35907 ft 440 kts
2026-04-19 05:01 12.24468 100.45217 35152 ft 444 kts
2026-04-19 05:01 12.27593 100.45297 34105 ft 452 kts
2026-04-19 05:02 12.30716 100.45375 32626 ft 453 kts
2026-04-19 05:02 12.33869 100.45453 31679 ft 446 kts
2026-04-19 05:02 12.36903 100.45528 31229 ft 427 kts
2026-04-19 05:02 12.39794 100.45601 30699 ft 414 kts
2026-04-19 05:03 12.42637 100.45672 30162 ft 406 kts
2026-04-19 05:03 12.45472 100.45743 29578 ft 405 kts
2026-04-19 05:03 12.48287 100.45811 29038 ft 403 kts
2026-04-19 05:03 12.51097 100.45881 28508 ft 404 kts
2026-04-19 05:04 12.53900 100.45955 27975 ft 403 kts
2026-04-19 05:04 12.56701 100.46027 27438 ft 402 kts
2026-04-19 05:04 12.58552 100.46076 27083 ft 401 kts
2026-04-19 05:04 12.62280 100.46176 26381 ft 400 kts
2026-04-19 05:05 12.65037 100.46248 25860 ft 400 kts
2026-04-19 05:05 12.67820 100.46319 25347 ft 400 kts
2026-04-19 05:05 12.69672 100.46365 25015 ft 399 kts
2026-04-19 05:05 12.73384 100.46456 24346 ft 399 kts
2026-04-19 05:06 12.75220 100.46500 24026 ft 398 kts
2026-04-19 05:06 12.77991 100.46569 23537 ft 398 kts
2026-04-19 05:06 12.80761 100.46641 23017 ft 397 kts
2026-04-19 05:06 12.83515 100.46711 22550 ft 394 kts
2026-04-19 05:07 12.86255 100.46778 22075 ft 392 kts
2026-04-19 05:07 12.88970 100.46843 21606 ft 389 kts
2026-04-19 05:07 12.91674 100.46909 21126 ft 387 kts
2026-04-19 05:07 12.94362 100.46976 20651 ft 385 kts
2026-04-19 05:08 12.97034 100.47043 20154 ft 383 kts
2026-04-19 05:08 13.02346 100.47181 19144 ft 380 kts
2026-04-19 05:08 13.04980 100.47250 18635 ft 379 kts
2026-04-19 05:09 13.07585 100.47612 18103 ft 377 kts 14°
2026-04-19 05:09 13.10026 100.48509 17613 ft 374 kts 26°
2026-04-19 05:09 13.12211 100.49851 17168 ft 369 kts 34°
2026-04-19 05:09 13.14300 100.51357 16679 ft 365 kts 34°
2026-04-19 05:10 13.16348 100.52838 16192 ft 363 kts 35°
2026-04-19 05:10 13.18402 100.54324 15741 ft 359 kts 34°
2026-04-19 05:10 13.20277 100.55680 15325 ft 356 kts 34°
2026-04-19 05:10 13.22328 100.57164 14872 ft 354 kts 35°
2026-04-19 05:11 13.24328 100.58612 14427 ft 350 kts 35°
2026-04-19 05:11 13.26311 100.60049 13989 ft 348 kts 35°
2026-04-19 05:11 13.28259 100.61458 13720 ft 342 kts 35°
2026-04-19 05:11 13.30218 100.62875 13558 ft 345 kts 35°
2026-04-19 05:12 13.32188 100.64295 13382 ft 345 kts 35°
2026-04-19 05:12 13.34158 100.65714 13199 ft 345 kts 35°
2026-04-19 05:12 13.36124 100.67133 12814 ft 345 kts 35°
2026-04-19 05:12 13.38080 100.68547 12318 ft 343 kts 35°
2026-04-19 05:13 13.40012 100.69943 11822 ft 336 kts 35°
2026-04-19 05:13 13.41921 100.71322 11353 ft 334 kts 35°
2026-04-19 05:13 13.43789 100.72674 11126 ft 332 kts 36°
2026-04-19 05:13 13.45680 100.74046 10859 ft 332 kts 36°
2026-04-19 05:14 13.47563 100.75412 10555 ft 330 kts 36°
2026-04-19 05:14 13.49407 100.76749 10259 ft 315 kts 36°
2026-04-19 05:14 13.51144 100.78007 9953 ft 298 kts 36°
2026-04-19 05:14 13.52800 100.79206 9792 ft 288 kts 36°
2026-04-19 05:15 13.54466 100.80386 9668 ft 290 kts 32°
2026-04-19 05:15 13.56308 100.81229 9545 ft 293 kts 17°
2026-04-19 05:15 13.58282 100.81768 9426 ft 292 kts 15°
2026-04-19 05:15 13.60242 100.82301 9270 ft 291 kts 15°
2026-04-19 05:16 13.62197 100.82836 9039 ft 290 kts 16°
2026-04-19 05:16 13.64164 100.83376 8599 ft 296 kts 15°
2026-04-19 05:16 13.66151 100.83922 8251 ft 294 kts 16°
2026-04-19 05:16 13.68127 100.84465 7894 ft 294 kts 15°
2026-04-19 05:17 13.70095 100.85005 7523 ft 292 kts 15°
2026-04-19 05:17 13.72045 100.85540 6937 ft 289 kts 15°
2026-04-19 05:17 13.73970 100.86067 6412 ft 284 kts 14°
2026-04-19 05:17 13.75856 100.86584 5807 ft 283 kts 14°
2026-04-19 05:18 13.77754 100.87105 5233 ft 280 kts 14°
2026-04-19 05:18 13.79572 100.87605 5091 ft 261 kts 14°
2026-04-19 05:18 13.81318 100.87921 4850 ft 252 kts 354°
2026-04-19 05:18 13.82919 100.87369 4774 ft 242 kts 322°
2026-04-19 05:19 13.84019 100.86069 4295 ft 246 kts 292°
2026-04-19 05:19 13.84499 100.84380 3761 ft 250 kts 271°
2026-04-19 05:19 13.84347 100.82650 3446 ft 237 kts 251°
2026-04-19 05:19 13.83691 100.81208 3300 ft 209 kts 232°
2026-04-19 05:20 13.82759 100.80147 2906 ft 196 kts 217°
2026-04-19 05:20 13.81623 100.79439 2499 ft 185 kts 201°
2026-04-19 05:20 13.80449 100.79071 2200 ft 167 kts 194°
2026-04-19 05:20 13.79378 100.78789 1973 ft 153 kts 194°
2026-04-19 05:21 13.78368 100.78523 1793 ft 147 kts 194°
2026-04-19 05:21 13.77402 100.78269 1608 ft 141 kts 193°
2026-04-19 05:21 13.76450 100.78019 1430 ft 144 kts 194°
2026-04-19 05:21 13.75477 100.77762 1243 ft 142 kts 194°
2026-04-19 05:22 13.74527 100.77513 1054 ft 142 kts 195°
2026-04-19 05:22 13.73558 100.77258 891 ft 144 kts 195°
2026-04-19 05:22 13.72606 100.77007 720 ft 139 kts 193°
2026-04-19 05:22 13.71673 100.76762 550 ft 139 kts 195°
2026-04-19 05:23 13.70720 100.76507 361 ft 141 kts 193°
2026-04-19 05:23 13.69778 100.76257 154 ft 137 kts 193°
2026-04-19 05:23 13.68865 100.76022 27 ft 136 kts 194°
2026-04-19 05:23 13.68051 100.75812 12 ft 98 kts 194°
2026-04-19 05:24 13.67565 100.75685 11 ft 49 kts 194°
2026-04-19 05:24 13.67340 100.75625 14 ft 26 kts 199°
2026-04-19 05:24 13.67212 100.75551 14 ft 17 kts 211°
2026-04-19 05:24 13.67122 100.75478 13 ft 19 kts 229°
2026-04-19 05:25 13.67090 100.75404 13 ft 11 kts 285°
2026-04-19 05:25 13.67160 100.75382 13 ft 13 kts
2026-04-19 05:25 13.67253 100.75404 15 ft 15 kts 13°
2026-04-19 05:25 13.67357 100.75437 13 ft 17 kts 14°
2026-04-19 05:26 13.67478 100.75468 13 ft 16 kts 14°
2026-04-19 05:26 13.67567 100.75492 13 ft 14 kts 14°
2026-04-19 05:26 13.67670 100.75517 13 ft 16 kts 13°
2026-04-19 05:26 13.67788 100.75548 13 ft 19 kts 14°
2026-04-19 05:27 13.67920 100.75585 13 ft 20 kts 17°
2026-04-19 05:27 13.68057 100.75621 13 ft 21 kts 15°
2026-04-19 05:27 13.68198 100.75658 13 ft 21 kts 16°
2026-04-19 05:27 13.68340 100.75695 13 ft 21 kts 15°
2026-04-19 05:28 13.68486 100.75733 14 ft 22 kts 15°
2026-04-19 05:28 13.68634 100.75773 16 ft 22 kts 16°
2026-04-19 05:28 13.68785 100.75812 14 ft 23 kts 15°
2026-04-19 05:28 13.68938 100.75850 13 ft 21 kts 13°
2026-04-19 05:29 13.69074 100.75878 13 ft 18 kts 346°
2026-04-19 05:29 13.69112 100.75844 13 ft 6 kts 296°
2026-04-19 05:29 13.69121 100.75802 13 ft 7 kts 283°
2026-04-19 05:29 13.69133 100.75752 13 ft 8 kts 284°
2026-04-19 05:30 13.69148 100.75696 13 ft 9 kts 284°
2026-04-19 05:30 13.69176 100.75639 14 ft 9 kts 322°
2026-04-19 05:30 13.69237 100.75631 15 ft 9 kts 12°
2026-04-19 05:30 13.69303 100.75647 13 ft 10 kts 14°
2026-04-19 05:31 13.69359 100.75638 13 ft 8 kts 302°
2026-04-19 05:31 13.69372 100.75584 13 ft 7 kts 283°
2026-04-19 05:31 13.69374 100.75575 13 ft 0 kts 284°